Vertical_Velocity
-2 13 -2 -7 -2 -1 4 4 2 -6 -5 3 -2 -1 -5 -1 4 1 3 -2 -1 1 -3 1 2 -0 5 1 1 -0 -2 -2 -1 -0 -2 -1 -1 -2 -1 -1 -1 -2 -2 -3
16 -2 -10 1 1 4 2 2 -7 -7 -3 9 -0 -8 -5 -0 -5 -7 -3 2 -0 4 7 -5 0 1 5 -1 -2 -2 -0 -4 -1 1 -2 -1 -0 -0 -1 0 -1 -2 -3 -1
2 -15 0 5 1 6 -2 3 -2 5 -5 -2 10 -6 -3 -13 4 6 -3 -0 4 -3 2 -2 1 1 1 1 -1 1 -1 1 -1 1 1 1 2 3 4 -3 -2 -2 -1 -3
-2 -11 5 2 0 6 6 -2 2 2 10 -1 4 -12 -6 -4 1 2 -1 -0 3 1 10 0 2 3 5 4 1 0 -2 -0 -2 -2 -1 -0 1 -1 -3 0 1 -1 1 2
-38 2 1 6 -14 7 -18 3 3 2 3 15 -9 19 -23 5 4 -1 -2 -1 -4 0 0 3 0 4 4 2 2 -0 -2 -2 -2 -3 -1 -1 -1 -2 -2 -2 -2 -1 -1 0
-11 -4 3 -3 -3 2 -3 3 4 3 6 12 -11 18 -23 1 3 2 1 -2 -1 3 2 6 -1 1 2 2 2 0 1 0 -2 -4 -4 -3 -3 -3 -4 -1 -2 -1 -3 -0
1 -8 -4 6 10 4 8 9 -0 9 12 -14 -3 17 -19 1 1 2 -1 -1 -0 1 4 -0 -2 -5 5 3 4 1 -1 0 -2 -2 -1 -2 -3 -2 -1 -2 -1 -5 -1 -1
2 12 5 -9 -5 -8 -5 4 1 -0 2 -12 -3 -4 -15 4 0 -2 -4 4 1 4 -2 -2 -4 6 -3 3 3 1 0 -1 -1 -1 -0 -0 -2 1 -1 -1 -1 1 -0 -0
5 -11 2 1 -0 10 -27 10 -16 10 -1 13 -6 -19 1 2 3 2 1 1 0 1 0 -3 5 0 2 3 -0 -1 -1 -0 -1 -1 -2 -2 -3 -3 -2 -3 -3 -0 -0 -1
-12 3 -4 -6 4 -0 10 -5 1 1 1 0 -7 -4 -17 4 2 1 3 1 1 1 1 3 -1 -0 4 5 1 -1 -1 -1 -2 -2 -2 -2 -2 -3 -2 -2 -2 -3 -1 -2
1 12 -24 5 3 -3 6 2 4 4 2 4 -0 -17 5 3 1 -1 0 -1 -1 -1 -1 0 1 3 5 2 2 1 -1 -1 -1 -1 0 1 2 2 1 -2 -4 -3 -4 -0
4 3 1 -12 -15 1 4 -7 4 9 -8 -2 3 -33 1 -1 0 -1 0 -2 -1 -2 -2 1 3 1 3 3 0 1 -0 -0 1 -1 0 -1 -1 -0 1 2 1 -3 -6 -2
3 -4 2 -4 0 -3 4 -5 1 1 4 -7 12 -25 -1 1 1 -1 -0 -1 -1 -2 1 1 6 4 3 2 1 1 0 0 -0 0 -0 -2 -1 -4 -4 -3 -1 2 2 -3
2 1 10 1 -7 4 -3 -1 -2 1 3 -9 -4 -10 -13 -5 -0 0 0 3 -1 -2 1 6 1 -0 -0 2 2 1 -3 -4 0 0 -2 -1 -1 1 2 -2 -4 -2 2 -1
9 2 7 -5 -2 5 3 2 -1 6 -7 11 -16 2 -9 -3 1 -1 9 0 4 2 3 7 -3 -2 -0 -2 -1 -0 -3 0 5 -0 -1 0 1 -3 -2 -4 2 3 -2 -2
0 -9 4 -5 -2 3 2 -2 1 -0 -4 1 3 -11 -0 -8 2 2 2 4 0 2 1 7 -2 3 1 -1 -2 1 1 -1 -0 -3 -2 -1 -1 -3 -4 -2 -0 2 -2 -2
8 3 5 -12 1 2 3 -14 -2 -2 0 6 5 -23 -2 -7 -2 -1 1 -1 -1 2 0 3 -1 0 1 1 4 -2 -3 -3 -2 -3 -3 -3 -1 -2 -1 -0 -4 1 -2 -2
2 5 5 -6 7 9 -38 -2 2 5 -3 -1 2 -4 -1 -3 3 -3 -4 -2 1 7 -0 -0 -1 0 1 3 -2 -3 -3 -1 -0 1 -1 -1 -2 -2 -2 -1 0 1 -0 0
4 4 -1 9 1 -18 -5 -11 6 7 -25 -2 1 -3 -3 5 -3 -0 -2 -3 9 1 1 1 -3 2 1 1 -2 -2 0 1 -1 -4 -2 0 -3 -3 0 -1 -2 -3 -3 -0
8 6 11 6 8 -2 -27 -12 -3 4 -16 -2 6 -3 0 0 5 6 4 5 3 -3 -9 -3 -2 0 1 1 0 -2 1 -2 -2 -1 -0 -1 -2 -1 -1 -2 -3 -2 1 -2
5 5 -2 -1 -1 -15 -12 -6 6 24 -30 -1 2 2 -0 -0 4 -3 -2 -0 -1 -2 -1 1 4 1 1 -2 -3 2 -0 -0 -1 0 -1 -0 -1 -0 -1 -4 -3 -1 -0 0
2 2 -1 6 11 -8 -1 2 37 -18 1 -3 0 1 1 -2 1 0 1 0 -1 -1 -1 3 1 0 -2 1 2 -0 -0 -0 -1 -0 -0 -0 -3 -2 -3 -2 -3 -1 -2 -2
5 7 2 3 -8 -2 -4 -1 -0 -1 -1 3 -2 -0 -3 -3 3 1 -1 -0 0 2 1 -0 -2 -1 2 0 1 -1 -1 1 -1 -1 -1 -1 -5 2 -2 -3 -3 -3 -2 -3
-8 1 7 28 -21 -6 -1 0 1 -1 -1 0 -6 -2 -1 -3 -1 -0 0 3 0 0 0 -0 2 4 -0 -1 -3 0 -1 -2 -1 -0 -3 -0 -0 1 -1 -1 -2 -3 -4 -4
-4 3 -1 -8 -5 -0 -4 -0 4 4 -1 6 -2 -19 2 -3 -0 0 2 2 2 -2 0 1 2 -2 -1 -1 -0 -2 -3 -1 -2 -1 -1 1 -0 -1 -0 -2 -4 -4 -0 -4
-1 -7 4 -10 -7 7 -3 -4 -3 -5 -3 0 1 4 4 -0 -1 3 1 0 -2 0 2 -0 -1 -0 0 -1 -2 -1 -1 -3 -0 -0 0 -4 -1 -2 -1 -1 5 4 -3 -1
Height
1491 1491 1483 1473 1475 1474 1473 1476 1473 1465 1460 1471 1471 1466 1460 1460 1468 1474 1474 1481 1486 1492 1499 1503 1505 1506 1506 1505 1506 1507 1508 1508 1509 1509 1508 1508 1506 1504 1504 1502 1498 1496 1494 1491
1482 1482 1474 1469 1472 1475 1477 1478 1474 1466 1461 1462 1465 1462 1456 1454 1453 1463 1468 1471 1477 1486 1494 1500 1503 1504 1505 1504 1505 1507 1506 1506 1507 1506 1505 1504 1503 1502 1502 1501 1497 1496 1492 1490
1475 1468 1468 1472 1471 1477 1474 1474 1470 1469 1463 1464 1466 1461 1456 1447 1445 1451 1461 1463 1469 1478 1487 1496 1500 1502 1503 1503 1504 1505 1505 1505 1504 1504 1504 1503 1503 1503 1502 1499 1498 1495 1492 1489
1465 1469 1467 1472 1471 1469 1472 1464 1465 1471 1470 1466 1454 1455 1438 1430 1431 1445 1454 1460 1464 1473 1483 1492 1496 1499 1502 1501 1500 1501 1502 1503 1502 1502 1501 1500 1500 1500 1498 1498 1497 1493 1491 1487
1464 1465 1469 1467 1465 1467 1465 1463 1467 1468 1466 1461 1451 1451 1434 1426 1432 1445 1449 1455 1462 1470 1480 1489 1494 1497 1499 1499 1499 1499 1500 1500 1499 1499 1499 1498 1498 1498 1497 1496 1493 1492 1489 1486
1466 1465 1469 1467 1465 1465 1463 1470 1469 1466 1463 1464 1450 1450 1426 1425 1420 1428 1442 1453 1459 1466 1476 1486 1492 1495 1498 1497 1496 1497 1498 1498 1497 1498 1498 1496 1495 1495 1495 1494 1492 1489 1486 1484
1467 1461 1462 1470 1472 1469 1468 1472 1474 1468 1465 1453 1435 1437 1416 1424 1430 1434 1439 1448 1457 1466 1475 1483 1490 1495 1497 1497 1495 1495 1496 1497 1496 1496 1496 1494 1494 1493 1493 1492 1490 1486 1484 1481
1460 1458 1451 1455 1465 1464 1464 1468 1472 1469 1456 1444 1423 1428 1420 1424 1434 1441 1446 1446 1456 1466 1474 1480 1486 1491 1494 1495 1494 1493 1494 1496 1496 1495 1494 1493 1492 1492 1491 1489 1487 1485 1482 1478
1458 1453 1450 1455 1454 1460 1461 1461 1458 1464 1457 1461 1441 1426 1414 1428 1433 1439 1444 1449 1457 1465 1472 1478 1483 1487 1490 1492 1491 1490 1491 1493 1493 1492 1491 1491 1490 1489 1488 1485 1483 1482 1479 1475
1460 1462 1459 1459 1458 1456 1455 1456 1473 1478 1475 1463 1435 1429 1422 1421 1430 1439 1444 1449 1458 1465 1471 1476 1481 1485 1487 1487 1487 1487 1488 1490 1490 1489 1488 1488 1487 1484 1483 1480 1478 1476 1474 1471
1459 1464 1455 1453 1453 1452 1458 1461 1458 1460 1472 1457 1452 1433 1423 1430 1431 1437 1443 1452 1458 1463 1470 1475 1480 1484 1485 1485 1486 1486 1486 1488 1487 1487 1485 1485 1483 1480 1477 1475 1472 1470 1468 1466
1463 1463 1456 1451 1450 1447 1448 1459 1461 1460 1463 1458 1453 1434 1422 1433 1438 1441 1444 1451 1457 1463 1468 1474 1478 1481 1483 1484 1485 1485 1485 1485 1484 1483 1482 1482 1480 1478 1476 1473 1467 1464 1463 1462
1471 1465 1465 1457 1450 1447 1448 1457 1451 1445 1449 1462 1454 1442 1429 1434 1437 1439 1443 1448 1454 1461 1466 1472 1477 1478 1481 1482 1482 1483 1484 1483 1482 1481 1479 1479 1476 1474 1473 1470 1466 1462 1459 1455
1479 1470 1470 1467 1451 1453 1472 1474 1464 1466 1465 1449 1447 1444 1435 1431 1431 1438 1442 1445 1449 1456 1462 1468 1471 1475 1477 1479 1479 1479 1480 1480 1480 1479 1478 1477 1476 1474 1470 1466 1463 1462 1458 1453
1475 1472 1468 1460 1456 1453 1451 1447 1450 1459 1460 1462 1452 1450 1436 1432 1434 1433 1432 1442 1448 1452 1460 1466 1469 1472 1474 1477 1477 1477 1478 1479 1477 1477 1477 1476 1473 1471 1468 1464 1462 1458 1454 1450
1469 1468 1464 1459 1455 1455 1453 1444 1441 1443 1441 1439 1437 1432 1428 1427 1427 1426 1425 1433 1443 1449 1456 1464 1470 1470 1472 1474 1475 1476 1475 1476 1475 1474 1475 1474 1470 1467 1465 1463 1461 1456 1451 1446
1467 1467 1464 1457 1451 1448 1454 1436 1440 1441 1438 1440 1439 1428 1426 1423 1423 1422 1423 1430 1438 1445 1456 1463 1467 1471 1472 1472 1472 1473 1474 1473 1473 1473 1473 1471 1467 1466 1463 1461 1458 1455 1449 1445
1465 1465 1461 1458 1455 1458 1434 1431 1430 1428 1425 1426 1425 1422 1423 1421 1419 1425 1427 1431 1435 1442 1453 1462 1467 1469 1469 1471 1471 1471 1473 1473 1474 1472 1472 1469 1465 1463 1463 1460 1456 1452 1448 1444
1460 1457 1459 1458 1448 1437 1431 1423 1422 1423 1422 1418 1417 1415 1414 1414 1423 1427 1429 1430 1435 1444 1455 1461 1465 1468 1469 1470 1470 1472 1474 1473 1472 1471 1470 1467 1464 1464 1462 1457 1453 1451 1448 1444
1448 1448 1451 1449 1445 1435 1422 1421 1419 1420 1416 1411 1412 1408 1408 1416 1419 1426 1434 1437 1440 1447 1455 1461 1464 1467 1468 1469 1469 1472 1472 1471 1471 1470 1469 1466 1465 1463 1459 1456 1454 1451 1447 1443
1436 1436 1439 1439 1439 1428 1417 1417 1419 1427 1417 1418 1417 1411 1412 1418 1426 1435 1441 1446 1448 1452 1458 1462 1465 1466 1467 1468 1470 1471 1472 1471 1470 1470 1468 1467 1464 1462 1459 1456 1454 1451 1448 1442
1440 1439 1438 1438 1437 1434 1417 1417 1417 1412 1415 1419 1420 1420 1422 1428 1433 1438 1443 1448 1452 1454 1459 1462 1464 1466 1467 1468 1470 1471 1470 1470 1470 1469 1468 1466 1463 1462 1460 1457 1453 1450 1446 1440
1426 1421 1421 1424 1422 1415 1417 1417 1417 1418 1418 1421 1426 1428 1430 1433 1437 1440 1445 1449 1454 1456 1459 1462 1464 1466 1466 1467 1469 1469 1469 1470 1469 1469 1467 1466 1463 1462 1460 1456 1453 1449 1444 1439
1425 1422 1422 1418 1410 1411 1413 1415 1416 1419 1421 1421 1424 1429 1432 1434 1440 1443 1447 1450 1453 1456 1460 1462 1465 1465 1465 1467 1467 1469 1469 1469 1469 1469 1467 1467 1464 1462 1460 1457 1453 1449 1444 1440
1421 1428 1421 1411 1409 1407 1408 1411 1415 1418 1420 1419 1418 1427 1432 1436 1440 1444 1446 1450 1453 1456 1460 1462 1463 1464 1466 1468 1469 1469 1469 1469 1469 1469 1467 1466 1464 1462 1460 1457 1453 1450 1446 1441
1422 1418 1421 1411 1406 1403 1404 1410 1414 1417 1418 1420 1421 1425 1432 1436 1441 1444 1447 1450 1453 1456 1458 1460 1463 1465 1467 1468 1469 1469 1468 1468 1468 1468 1467 1464 1464 1463 1460 1458 1455 1451 1446 1442